Location: L�gaud
(45.7115°N, 1.7775°E)
Time: 06:39:05
(UTC+00:00)

IRS-1C Rocket - Pass Details

Date: 03 March 2021
Orbit: 800 x 806 km, 99.0° (Epoch: 10 April)

Event Time Altitude Azimuth Distance (km) Brightness Sun altitude
Rises 18:04:30 0° 157° (SSE) 3,303 7.1 -4.6°
Reaches altitude 10° 18:06:50 10° 155° (SSE) 2,377 6.3 -5.0°
Maximum altitude 18:12:03 71° 72° (ENE) 854 4.1 -5.9°
Drops below altitude 10° 18:17:19 10° 350° (N) 2,397 6.7 -6.9°
Sets 18:19:40 0° 348° (NNW) 3,332 7.4 -7.3°
